1515862800.71,3770,6.44,73438.0,-15.15,-20.69,-19.47,0,*55
1515862801.97,3771,6.44,73436.3,-15.13,-20.63,-19.41,0,*5E
1515862803.21,3772,6.44,73438.0,-15.15,-20.83,-19.37,0,*54
1515862804.42,3773,6.44,73438.5,-15.15,-20.89,-19.47,0,*58
1515862805.63,3774,6.44,73442.3,-15.15,-20.93,-19.51,0,*53
1515862806.86,3775,6.44,73438.8,-15.15,-21.23,-19.75,0,*5E
1515862808.12,3776,6.44,73440.5,-15.17,-21.33,-19.91,0,*54
1515862809.38,3777,6.44,73442.5,-15.17,-21.17,-19.81,0,*52
1515862810.61,3778,6.44,73440.0,-15.15,-21.17,-19.81,0,*5F
1515862811.84,3779,6.44,73440.5,-15.15,-21.09,-19.81,0,*51
1515862813.07,3780,6.44,73438.5,-15.15,-21.09,-19.65,0,*5D
1515862814.31,3781,6.44,73440.3,-15.15,-20.93,-19.65,0,*5E
1515862815.54,3782,6.44,73440.0,-15.15,-20.93,-19.65,0,*5D
1515862816.78,3783,6.44,73442.0,-15.15,-20.89,-19.61,0,*53
1515862818.04,3784,6.44,73440.5,-15.17,-21.03,-19.75,0,*50
1515862819.27,3785,6.44,73440.0,-15.17,-21.17,-19.75,0,*54
1515862820.53,3786,6.44,73444.3,-15.17,-21.17,-19.65,0,*56
1515862821.77,3787,6.44,73440.8,-15.17,-21.17,-19.75,0,*56
1515862823.03,3788,6.44,73438.3,-15.17,-21.23,-19.75,0,*5E
1515862824.3,3789,6.44,73444.8,-15.17,-21.53,-19.95,0,*56
1515862825.56,3790,6.44,73442.8,-15.17,-21.53,-19.99,0,*52
1515862826.82,3791,6.44,73446.5,-15.19,-21.57,-20.15,0,*57
1515862828.05,3792,6.44,73442.3,-15.17,-21.63,-20.09,0,*50
1515862829.31,3793,6.44,73442.0,-15.19,-21.67,-20.15,0,*56
1515862830.59,3794,6.44,73440.8,-15.17,-21.53,-20.15,0,*58
1515862831.86,3795,6.44,73444.8,-15.19,-21.67,-20.35,0,*52
1515862833.12,3796,6.44,73440.0,-15.19,-21.67,-20.35,0,*51
1515862834.36,3797,6.44,73442.3,-15.19,-21.53,-20.05,0,*54
1515862835.6,3798,6.44,73440.8,-15.19,-21.57,-20.05,0,*5F
1515862836.86,3799,6.44,73446.0,-15.19,-21.87,-20.15,0,*52
1515862838.14,3800,6.44,73442.8,-15.21,-21.97,-20.35,0,*55
1515862839.39,3801,6.44,73444.0,-15.19,-22.17,-20.59,0,*5E
1515862840.63,3802,6.44,73444.3,-15.19,-22.21,-20.63,0,*51
1515862841.84,3803,6.44,73444.5,-15.19,-22.07,-20.63,0,*54
1515862843.08,3804,6.44,73444.0,-15.19,-22.47,-20.73,0,*56
1515862844.34,3805,6.44,73444.8,-15.19,-22.47,-20.79,0,*5D
1515862845.58,3806,6.44,73444.5,-15.21,-22.67,-21.09,0,*51
1515862846.85,3807,6.44,73444.8,-15.21,-22.67,-21.23,0,*58
1515862848.12,3808,6.44,73442.5,-15.21,-22.37,-21.27,0,*56
1515862849.36,3809,6.44,73444.5,-15.21,-22.07,-20.89,0,*51
1515862850.63,3810,6.44,73442.0,-15.21,-21.97,-20.73,0,*56
1515862851.92,3811,6.44,73442.5,-15.21,-21.83,-20.49,0,*5B
1515862853.14,3812,6.44,73444.8,-15.23,-21.63,-20.39,0,*53
1515862854.4,3813,6.44,73444.0,-15.23,-21.57,-20.35,0,*59
1515862855.61,3814,6.44,73446.5,-15.23,-20.89,-19.99,0,*50
1515862856.85,3815,6.44,73446.8,-15.21,-20.43,-19.71,0,*53
1515862858.11,3816,6.44,73444.5,-15.23,-20.19,-19.61,0,*5C
1515862859.35,3817,6.44,73444.5,-15.25,-19.99,-19.27,0,*5B
1515862860.57,3818,6.44,73442.5,-15.23,-19.85,-18.99,0,*5B
1515862861.78,3819,6.44,73446.8,-15.23,-19.71,-18.83,0,*5A
1515862862.99,3820,6.44,73446.3,-15.23,-19.71,-18.79,0,*55
1515862864.23,3821,6.44,73444.0,-15.23,-19.61,-18.69,0,*54
1515862865.44,3822,6.44,73444.0,-15.23,-19.71,-18.69,0,*56
1515862866.71,3823,6.44,73446.5,-15.21,-19.81,-18.59,0,*59
1515862867.94,3824,6.44,73446.3,-15.23,-19.85,-18.69,0,*5B
1515862869.19,3825,6.44,73448.8,-15.21,-19.99,-18.73,0,*5E
1515862870.39,3826,6.44,73444.5,-15.23,-20.25,-18.83,0,*5D
1515862871.59,3827,6.44,73446.5,-15.23,-20.25,-18.99,0,*57
1515862872.84,3828,6.44,73442.3,-15.23,-20.35,-18.93,0,*53
1515862874.09,3829,6.44,73446.8,-15.21,-20.29,-18.93,0,*5D
1515862875.29,3830,6.44,73440.8,-15.23,-20.09,-18.83,0,*54
1515862876.57,3831,6.44,73446.5,-15.21,-20.19,-18.89,0,*5C
1515862877.82,3832,6.44,73444.5,-15.21,-20.35,-19.07,0,*56
1515862879.08,3833,6.44,73444.3,-15.21,-20.49,-19.13,0,*59
1515862880.33,3834,6.44,73442.8,-15.21,-20.59,-19.13,0,*5F
1515862881.59,3835,6.44,73444.8,-15.23,-20.79,-19.31,0,*5E
1515862882.82,3836,6.44,73442.5,-15.23,-20.93,-19.41,0,*5E
1515862884.09,3837,6.44,73440.0,-15.21,-20.93,-19.57,0,*5A
1515862885.36,3838,6.44,73442.3,-15.21,-21.23,-19.71,0,*5B
1515862886.65,3839,6.44,73438.0,-15.21,-21.27,-19.85,0,*55
1515862887.86,3840,6.44,73436.5,-15.23,-21.47,-20.05,0,*5D
1515862889.16,3841,6.44,73442.5,-15.21,-21.53,-20.19,0,*56
1515862890.37,3842,6.44,73440.0,-15.23,-21.63,-20.25,0,*5B
1515862891.63,3843,6.44,73440.5,-15.23,-21.87,-20.35,0,*51
1515862892.87,3844,6.44,73438.0,-15.23,-22.07,-20.53,0,*5D
1515862894.11,3845,6.44,73438.0,-15.23,-22.21,-20.63,0,*5B
1515862895.32,3846,6.44,73442.5,-15.25,-22.11,-20.63,0,*5D
1515862896.53,3847,6.44,73440.5,-15.25,-22.11,-20.63,0,*5C
1515862897.75,3848,6.44,73442.8,-15.25,-21.93,-20.63,0,*5A
1515862898.96,3849,6.44,73436.3,-15.25,-22.11,-20.63,0,*52
1515862900.2,3850,6.44,73438.8,-15.23,-22.27,-20.79,0,*52
1515862901.46,3851,6.44,73438.3,-15.27,-22.57,-21.03,0,*5C
1515862902.69,3852,6.44,73438.8,-15.25,-22.67,-21.27,0,*58
1515862903.93,3853,6.44,73442.0,-15.25,-22.77,-21.47,0,*5E
1515862905.17,3854,6.44,73440.8,-15.25,-22.57,-21.33,0,*58
1515862906.4,3855,6.44,73442.3,-15.23,-21.73,-20.79,0,*55
1515862907.67,3856,6.44,73446.0,-15.25,-20.99,-20.49,0,*56
1515862908.91,3857,6.44,73444.5,-15.25,-20.49,-20.05,0,*52
1515862910.13,3858,6.44,73446.0,-15.25,-19.13,-19.13,0,*55
1515862911.36,3859,6.44,73446.5,-15.25,-18.49,-18.35,0,*5F
1515862912.57,3860,6.44,73444.0,-15.25,-18.21,-18.07,0,*5A
1515862913.8,3861,6.44,73444.0,-15.25,-18.01,-17.73,0,*55
1515862915.01,3862,6.44,73442.8,-15.25,-17.87,-17.73,0,*57
1515862916.23,3863,6.44,73444.5,-15.25,-17.73,-17.35,0,*5F
1515862917.49,3864,6.44,73442.5,-15.25,-17.93,-17.45,0,*51
1515862918.72,3865,6.44,73446.5,-15.25,-17.79,-17.35,0,*53
1515862919.95,3866,6.44,73448.0,-15.23,-17.79,-17.31,0,*52
1515862921.15,3867,6.44,73446.5,-15.23,-17.73,-17.31,0,*59
1515862922.38,3868,6.44,73448.8,-15.23,-17.59,-17.31,0,*5E
1515862923.65,3869,6.44,73446.5,-15.23,-17.45,-17.17,0,*56
1515862924.91,3870,6.44,73448.0,-15.23,-17.17,-17.17,0,*59
1515862926.15,3871,6.44,73446.3,-15.21,-16.97,-16.97,0,*5A
1515862927.36,3872,6.44,73444.8,-15.23,-16.89,-16.89,0,*5B
1515862928.65,3873,6.44,73448.5,-15.21,-16.69,-16.69,0,*58
1515862929.93,3874,6.44,73448.0,-15.17,-16.51,-16.65,0,*5D
1515862931.16,3875,6.44,73446.8,-15.19,-16.51,-16.41,0,*54
1515862932.42,3876,6.44,73444.3,-15.17,-16.37,-16.31,0,*5E
1515862933.66,3877,6.44,73446.5,-15.19,-16.41,-16.27,0,*57
1515862934.92,3878,6.44,73444.0,-15.19,-16.27,-16.27,0,*58
1515862936.2,3879,6.44,73450.3,-15.17,-16.23,-16.23,0,*57
1515862937.46,3880,6.44,73444.0,-15.19,-16.23,-16.13,0,*5C
1515862938.75,3881,6.44,73444.0,-15.17,-16.09,-16.09,0,*50
1515862940.02,3882,6.44,73444.5,-15.17,-16.09,-16.03,0,*59
1515862941.28,3883,6.44,73446.0,-15.17,-16.09,-15.99,0,*58
1515862942.54,3884,6.44,73442.5,-15.17,-16.17,-16.03,0,*50
1515862943.8,3885,6.44,73448.0,-15.17,-16.23,-16.03,0,*56
1515862945.04,3886,6.44,73442.0,-15.15,-16.09,-16.03,0,*5F
1515862946.27,3887,6.44,73446.8,-15.15,-16.23,-16.03,0,*56
1515862947.51,3888,6.44,73446.3,-15.15,-16.17,-16.03,0,*5E
1515862948.74,3889,6.44,73444.8,-15.15,-16.27,-15.99,0,*5C
1515862949.97,3890,6.44,73446.8,-15.15,-16.31,-16.03,0,*53
1515862951.23,3891,6.44,73442.8,-15.15,-16.31,-16.09,0,*58
1515862952.47,3892,6.44,73440.8,-15.15,-16.17,-16.03,0,*55
1515862953.7,3893,6.44,73440.8,-15.15,-16.23,-16.03,0,*53
1515862954.94,3894,6.44,73438.5,-15.15,-16.23,-16.03,0,*54
1515862956.2,3895,6.44,73442.5,-15.13,-16.27,-15.99,0,*57
1515862957.46,3896,6.44,73436.3,-15.13,-16.17,-15.99,0,*57
1515862958.72,3897,6.44,73440.0,-15.15,-16.27,-16.09,0,*59
1515862960.01,3898,6.44,73442.5,-15.13,-16.27,-16.13,0,*5B
1515862961.3,3899,6.44,73440.3,-15.13,-16.27,-16.17,0,*5E
1515862962.56,3900,6.44,73446.3,-15.15,-16.23,-16.17,0,*5D
1515862963.82,3901,6.44,73444.8,-15.13,-16.27,-16.03,0,*5B
1515862965.12,3902,6.44,73442.3,-15.13,-16.13,-16.13,0,*5E
1515862966.35,3903,6.44,73446.5,-15.09,-16.03,-16.03,0,*54
1515862967.59,3904,6.44,73440.8,-15.09,-16.03,-16.03,0,*53
1515862968.79,3905,6.44,73440.0,-15.07,-15.99,-15.99,0,*5C
1515862969.99,3906,6.44,73442.0,-15.07,-16.03,-16.03,0,*5F
1515862971.2,3907,6.44,73440.5,-15.07,-16.03,-15.99,0,*5E
1515862972.42,3908,6.44,73440.8,-15.09,-15.99,-15.99,0,*5F
1515862973.66,3909,6.44,73440.8,-15.09,-15.99,-15.95,0,*52
1515862974.91,3910,6.44,73436.0,-15.09,-15.99,-15.89,0,*57
1515862976.14,3911,6.44,73436.5,-15.09,-15.99,-15.95,0,*5B
1515862977.38,3912,6.44,73438.5,-15.09,-15.99,-15.95,0,*58
1515862978.61,3913,6.44,73438.8,-15.07,-15.95,-15.89,0,*56
1515862979.84,3914,6.44,73440.5,-15.09,-15.99,-15.95,0,*5E
1515862981.07,3915,6.44,73438.8,-15.07,-15.95,-15.89,0,*50
1515862982.31,3916,6.44,73438.8,-15.09,-15.95,-15.95,0,*50
1515862983.58,3917,6.44,73438.5,-15.07,-15.89,-15.81,0,*57
1515862984.81,3918,6.44,73440.3,-15.07,-15.89,-15.75,0,*53
1515862986.05,3919,6.44,73436.5,-15.07,-15.89,-15.75,0,*52
1515862987.29,3920,6.44,73436.8,-15.07,-15.89,-15.75,0,*58
1515862988.55,3921,6.44,73438.3,-15.05,-15.95,-15.81,0,*5D
1515862989.81,3922,6.44,73436.3,-15.05,-15.99,-15.81,0,*52
1515862991.07,3923,6.44,73436.5,-15.05,-16.27,-15.95,0,*50
1515862992.29,3924,6.44,73436.0,-15.03,-16.37,-15.95,0,*50
1515862993.58,3925,6.44,73438.5,-15.05,-16.65,-16.09,0,*56
1515862994.84,3926,6.44,73442.3,-15.05,-16.93,-16.23,0,*54
1515862996.1,3927,6.44,73438.5,-15.05,-17.03,-16.37,0,*58
1515862997.39,3928,6.44,73438.3,-15.05,-17.41,-16.65,0,*56
1515862998.62,3929,6.44,73442.8,-15.05,-17.73,-16.97,0,*5B
1515862999.88,3930,6.44,73438.8,-15.05,-17.83,-17.25,0,*54
1515863001.09,3931,6.38,73438.8,-15.03,-17.83,-17.31,0,*56
1515863002.35,3932,6.44,73440.0,-15.03,-17.59,-17.41,0,*55
1515863003.63,3933,6.44,73438.3,-15.05,-17.25,-17.17,0,*5A
1515863004.87,3934,6.44,73440.0,-15.03,-17.11,-16.97,0,*55
1515863006.1,3935,6.44,73440.8,-15.05,-16.93,-16.83,0,*5C
1515863007.31,3936,6.44,73438.0,-15.03,-16.83,-16.79,0,*5D
1515863008.58,3937,6.44,73442.3,-15.05,-16.69,-16.55,0,*50
1515863009.79,3938,6.44,73442.3,-15.03,-16.79,-16.55,0,*58
1515863011.02,3939,6.44,73442.5,-15.03,-16.79,-16.51,0,*5D
1515863012.26,3940,6.44,73442.0,-15.05,-16.79,-16.41,0,*54
1515863013.49,3941,6.38,73438.8,-15.03,-16.83,-16.51,0,*57
1515863014.7,3942,6.44,73442.5,-15.03,-16.93,-16.41,0,*54
1515863015.91,3943,6.44,73438.0,-15.03,-16.97,-16.55,0,*54
1515863017.2,3944,6.38,73436.0,-15.05,-17.25,-16.69,0,*52
1515863018.44,3945,6.38,73442.0,-15.03,-17.41,-16.79,0,*56
1515863019.66,3946,6.44,73440.3,-15.01,-17.69,-16.89,0,*52
1515863020.92,3947,6.44,73436.0,-15.03,-18.01,-17.03,0,*53
1515863022.16,3948,6.38,73438.3,-15.03,-18.73,-17.55,0,*5A
1515863023.4,3949,6.44,73440.0,-15.03,-19.37,-18.01,0,*54
1515863024.65,3950,6.44,73442.3,-15.03,-19.57,-18.59,0,*57
1515863025.86,3951,6.38,73434.5,-15.03,-19.37,-18.79,0,*52
1515863027.09,3952,6.44,73440.8,-15.03,-18.89,-18.65,0,*58
1515863028.38,3953,6.44,73436.5,-15.05,-18.35,-18.31,0,*59
1515863029.65,3954,6.44,73440.3,-15.05,-18.35,-17.83,0,*58
1515863030.86,3955,6.44,73442.3,-15.03,-18.21,-17.73,0,*55
1515863032.07,3956,6.44,73446.0,-15.03,-18.21,-17.69,0,*5D
1515863033.3,3957,6.44,73442.8,-15.05,-18.49,-17.73,0,*5F
1515863034.56,3958,6.44,73440.8,-15.05,-18.89,-17.87,0,*57
1515863035.78,3959,6.44,73440.0,-15.03,-18.99,-18.07,0,*56
1515863037.05,3960,6.44,73440.5,-15.05,-18.99,-18.31,0,*5F
1515863038.3,3961,6.44,73442.8,-15.05,-19.41,-18.49,0,*55
1515863039.56,3962,6.38,73442.0,-15.05,-19.85,-18.79,0,*5D
1515863040.76,3963,6.44,73444.3,-15.03,-20.05,-19.13,0,*55
1515863042.02,3964,6.44,73440.8,-15.05,-19.91,-19.23,0,*50
1515863043.27,3965,6.44,73442.8,-15.05,-19.65,-19.07,0,*5C
1515863044.53,3966,6.38,73438.8,-15.05,-19.65,-18.79,0,*57
1515863045.75,3967,6.44,73442.3,-15.03,-19.81,-18.99,0,*54
1515863046.97,3968,6.44,73442.8,-15.05,-20.05,-19.07,0,*5D
1515863048.22,3969,6.44,73440.3,-15.05,-20.15,-19.51,0,*5E
1515863049.46,3970,6.44,73440.5,-15.07,-19.65,-19.13,0,*5F
1515863050.69,3971,6.44,73440.0,-15.07,-19.57,-18.79,0,*52
1515863051.92,3972,6.44,73442.3,-15.07,-19.57,-18.79,0,*51
1515863053.13,3973,6.38,73442.0,-15.07,-19.81,-18.99,0,*55
1515863054.39,3974,6.38,73436.5,-15.09,-20.05,-19.27,0,*5E
1515863055.61,3975,6.38,73440.5,-15.07,-20.05,-19.23,0,*55
1515863056.89,3976,6.44,73440.3,-15.09,-20.19,-19.41,0,*51
1515863058.19,3977,6.44,73442.3,-15.09,-20.49,-19.57,0,*52
1515863059.47,3978,6.38,73438.5,-15.09,-20.49,-19.85,0,*52
1515863060.7,3979,6.44,73440.3,-15.09,-19.91,-19.47,0,*52
1515863061.96,3980,6.38,73436.8,-15.07,-19.41,-18.93,0,*5F
1515863063.2,3981,6.44,73442.3,-15.09,-18.99,-18.65,0,*5D
1515863064.46,3982,6.44,73442.0,-15.09,-18.83,-18.35,0,*50
1515863065.69,3983,6.44,73440.3,-15.09,-18.83,-18.25,0,*50
1515863066.92,3984,6.44,73442.0,-15.09,-18.99,-18.25,0,*5C
1515863068.15,3985,6.38,73438.5,-15.13,-19.03,-18.21,0,*50
1515863069.42,3986,6.44,73440.5,-15.13,-19.17,-18.35,0,*53
1515863070.69,3987,6.38,73442.3,-15.13,-19.31,-18.49,0,*5D
1515863071.95,3988,6.44,73442.0,-15.13,-19.61,-18.49,0,*57
1515863073.21,3989,6.44,73440.0,-15.13,-20.19,-19.13,0,*5D
1515863074.47,3990,6.38,73438.3,-15.13,-20.09,-19.27,0,*53
1515863075.68,3991,6.38,73438.0,-15.15,-19.91,-19.13,0,*58
1515863076.88,3992,6.44,73446.8,-15.15,-19.75,-19.07,0,*54
1515863078.11,3993,6.38,73444.3,-15.13,-19.71,-18.83,0,*5A
1515863079.34,3994,6.44,73446.8,-15.15,-19.61,-18.83,0,*5A
1515863080.61,3995,6.38,73440.5,-15.13,-19.61,-18.69,0,*59
1515863081.85,3996,6.38,73440.8,-15.15,-19.81,-18.89,0,*5C
1515863083.06,3997,6.44,73446.0,-15.15,-19.91,-19.03,0,*5F
1515863084.26,3998,6.38,73440.5,-15.15,-19.95,-19.03,0,*54
1515863085.47,3999,6.38,73440.8,-15.15,-19.95,-19.03,0,*55
1515863086.67,4000,6.38,73440.8,-15.15,-19.95,-19.07,0,*5F
1515863087.9,4001,6.38,73442.8,-15.15,-19.75,-18.89,0,*57
1515863089.14,4002,6.44,73444.3,-15.15,-19.61,-18.73,0,*54
1515863090.36,4003,6.38,73442.8,-15.15,-19.51,-18.73,0,*56
1515863091.56,4004,6.38,73442.5,-15.15,-19.75,-18.83,0,*58
1515863092.76,4005,6.38,73442.5,-15.15,-19.75,-18.83,0,*59
1515863093.96,4006,6.44,73446.0,-15.15,-19.75,-18.83,0,*5A
1515863095.16,4007,6.38,73440.3,-15.15,-19.75,-18.83,0,*5B
1515863096.36,4008,6.38,73440.0,-15.15,-19.75,-18.83,0,*54
1515863097.61,4009,6.38,73438.8,-15.19,-19.85,-18.89,0,*5C
1515863098.86,4010,6.38,73442.8,-15.17,-19.81,-19.03,0,*5D
1515863100.08,4011,6.38,73442.0,-15.19,-19.85,-19.07,0,*52
1515863101.31,4012,6.44,73444.3,-15.17,-19.95,-19.07,0,*5E
1515863102.57,4013,6.38,73442.5,-15.19,-20.49,-19.41,0,*58
1515863103.83,4014,6.38,73446.3,-15.19,-20.99,-19.85,0,*5A
1515863105.09,4015,6.44,73444.5,-15.19,-20.79,-20.19,0,*5A
1515863106.32,4016,6.38,73440.3,-15.19,-20.49,-19.95,0,*54
1515863107.58,4017,6.38,73442.0,-15.19,-20.49,-19.85,0,*54
1515863108.84,4018,6.38,73440.5,-15.17,-20.39,-19.81,0,*56
1515863110.05,4019,6.44,73446.5,-15.19,-19.99,-19.51,0,*54
1515863111.31,4020,6.38,73444.5,-15.19,-19.85,-19.41,0,*52
1515863112.57,4021,6.38,73446.0,-15.19,-19.57,-18.93,0,*52
1515863113.81,4022,6.38,73442.8,-15.19,-19.23,-18.73,0,*5C
1515863115.05,4023,6.38,73444.3,-15.19,-19.23,-18.45,0,*58
1515863116.31,4024,6.38,73442.5,-15.19,-19.27,-18.59,0,*56
1515863117.56,4025,6.38,73442.0,-15.19,-19.65,-18.59,0,*51
1515863118.8,4026,6.38,73442.3,-15.19,-19.65,-18.73,0,*5A
1515863120.04,4027,6.38,73440.3,-15.19,-19.61,-18.73,0,*5F
1515863121.26,4028,6.38,73442.5,-15.19,-19.71,-18.73,0,*51
1515863122.46,4029,6.38,73444.3,-15.19,-19.71,-18.79,0,*5A
1515863123.7,4030,6.44,73446.8,-15.19,-19.71,-18.89,0,*5D
1515863124.95,4031,6.38,73444.3,-15.21,-19.41,-18.79,0,*5B
1515863126.24,4032,6.38,73444.5,-15.21,-19.23,-18.59,0,*5E
1515863127.49,4033,6.44,73448.0,-15.21,-19.13,-18.49,0,*5D
1515863128.75,4034,6.38,73440.8,-15.21,-19.41,-18.45,0,*51
1515863130.01,4035,6.38,73444.3,-15.21,-19.85,-18.73,0,*5D
1515863131.27,4036,6.38,73444.3,-15.21,-20.05,-18.93,0,*52
1515863132.53,4037,6.38,73442.0,-15.21,-19.95,-18.93,0,*50
1515863133.81,4038,6.44,73448.0,-15.21,-19.81,-18.93,0,*5A
1515863135.09,4039,6.38,73446.8,-15.21,-19.81,-18.89,0,*50
1515863136.35,4040,6.38,73446.8,-15.21,-20.29,-19.27,0,*53
1515863137.59,4041,6.44,73450.3,-15.21,-20.59,-19.37,0,*54
1515863138.86,4042,6.38,73444.5,-15.21,-20.63,-19.57,0,*58
1515863140.11,4043,6.38,73446.5,-15.21,-21.13,-19.95,0,*51
1515863141.4,4044,6.44,73448.8,-15.21,-21.27,-20.19,0,*5F
1515863142.64,4045,6.38,73446.5,-15.23,-21.63,-20.49,0,*59
1515863143.88,4046,6.38,73448.5,-15.23,-21.77,-20.79,0,*5C
1515863145.11,4047,6.38,73448.5,-15.23,-21.73,-20.83,0,*5C
1515863146.35,4048,6.44,73446.5,-15.23,-22.03,-21.03,0,*5E
1515863147.55,4049,6.38,73444.0,-15.23,-22.03,-21.13,0,*5E
1515863148.76,4050,6.44,73450.0,-15.23,-22.03,-21.17,0,*52
1515863150.0,4051,6.38,73444.8,-15.25,-22.03,-21.27,0,*56
1515863151.21,4052,6.38,73444.5,-15.23,-21.93,-21.13,0,*5E
1515863152.45,4053,6.38,73444.5,-15.25,-22.11,-21.27,0,*57
1515863153.68,4054,6.38,73444.5,-15.27,-22.27,-21.47,0,*51
1515863154.93,4055,6.38,73444.3,-15.27,-22.41,-21.67,0,*52
1515863156.19,4056,6.44,73450.5,-15.27,-22.41,-21.67,0,*51
1515863157.44,4057,6.38,73446.5,-15.27,-22.31,-21.63,0,*53
1515863158.7,4058,6.38,73446.3,-15.25,-22.21,-21.57,0,*58
1515863159.9,4059,6.44,73446.3,-15.25,-22.27,-21.63,0,*58
1515863161.13,4060,6.38,73446.0,-15.27,-22.27,-21.47,0,*56
1515863162.37,4061,6.38,73446.8,-15.31,-22.37,-21.73,0,*56
1515863163.65,4062,6.38,73446.0,-15.31,-22.31,-21.67,0,*56
1515863164.86,4063,6.44,73444.5,-15.29,-22.11,-21.39,0,*57
1515863166.1,4064,6.44,73448.3,-15.31,-22.11,-21.43,0,*54
1515863167.3,4065,6.38,73444.0,-15.29,-22.07,-21.39,0,*56
1515863168.58,4066,6.38,73444.5,-15.27,-21.97,-21.33,0,*5B
1515863169.87,4067,6.44,73446.5,-15.31,-22.17,-21.53,0,*50
1515863171.07,4068,6.44,73448.3,-15.29,-22.07,-21.39,0,*5B
1515863172.27,4069,6.38,73440.8,-15.29,-22.07,-21.43,0,*57
1515863173.53,4070,6.38,73440.5,-15.31,-22.17,-21.43,0,*57
1515863174.77,4071,6.38,73446.5,-15.31,-22.11,-21.39,0,*5D
1515863176.06,4072,6.38,73444.5,-15.31,-22.17,-21.27,0,*57
1515863177.3,4073,6.38,73442.8,-15.29,-21.97,-21.47,0,*52
1515863178.56,4074,6.38,73442.0,-15.29,-22.17,-21.53,0,*5B
1515863179.79,4075,6.44,73444.0,-15.31,-22.11,-21.43,0,*54
1515863181.05,4076,6.38,73438.8,-15.31,-21.97,-21.39,0,*57
1515863182.28,4077,6.44,73440.3,-15.35,-22.03,-21.39,0,*5C
1515863183.54,4078,6.38,73442.0,-15.35,-22.11,-21.53,0,*5C
1515863184.82,4079,6.44,73442.8,-15.35,-21.97,-21.27,0,*53
1515863186.08,4080,6.44,73442.0,-15.35,-22.11,-21.53,0,*5B
1515863187.31,4081,6.38,73440.8,-15.35,-21.43,-21.13,0,*5A
1515863188.55,4082,6.38,73434.8,-15.37,-20.53,-20.25,0,*5F
1515863189.81,4083,6.38,73440.8,-15.35,-20.49,-19.95,0,*56
1515863191.09,4084,6.38,73442.3,-15.35,-20.79,-20.15,0,*50
1515863192.32,4085,6.38,73438.8,-15.35,-21.43,-20.63,0,*58
1515863193.56,4086,6.38,73434.8,-15.37,-21.77,-20.99,0,*5B
1515863194.82,4087,6.44,73440.8,-15.35,-21.83,-21.09,0,*5B
1515863196.08,4088,6.44,73434.8,-15.35,-22.17,-21.39,0,*59
1515863197.29,4089,6.38,73432.5,-15.37,-22.37,-21.73,0,*56
1515863198.52,4090,6.44,73434.0,-15.35,-22.11,-21.43,0,*5B
1515863199.75,4091,6.38,73432.3,-15.35,-22.11,-21.43,0,*5A
1515863200.99,4092,6.38,73430.3,-15.37,-22.17,-21.47,0,*59
1515863202.24,4093,6.38,73434.8,-15.37,-22.21,-21.57,0,*5C
1515863203.5,4094,6.38,73432.5,-15.37,-22.21,-21.57,0,*5B
1515863204.74,4095,6.44,73440.8,-15.37,-22.17,-21.47,0,*5E
1515863205.97,4096,6.44,73440.8,-15.37,-22.21,-21.43,0,*5C
1515863207.21,4097,6.44,73444.8,-15.37,-22.21,-21.47,0,*59
1515863208.44,4098,6.38,73442.3,-15.37,-22.27,-21.57,0,*51
1515863209.65,4099,6.38,73442.0,-15.37,-22.27,-21.63,0,*57
1515863210.85,4100,6.38,73436.8,-15.37,-22.07,-21.47,0,*52
1515863212.12,4101,6.38,73440.0,-15.39,-21.93,-21.27,0,*55
1515863213.37,4102,6.44,73442.3,-15.39,-22.03,-21.33,0,*59
1515863214.6,4103,6.38,73432.5,-15.39,-22.07,-21.47,0,*5F
1515863215.85,4104,6.38,73432.0,-15.39,-22.03,-21.33,0,*5F
1515863217.12,4105,6.38,73434.3,-15.39,-21.87,-21.17,0,*57
1515863218.38,4106,6.38,73434.8,-15.39,-21.87,-21.13,0,*50
1515863219.64,4107,6.38,73428.5,-15.39,-21.93,-21.27,0,*53
1515863220.91,4108,6.44,73436.8,-15.39,-21.87,-21.17,0,*5A
1515863222.17,4109,6.38,73432.5,-15.39,-22.03,-21.27,0,*57
1515863223.43,4110,6.38,73434.8,-15.39,-22.17,-21.47,0,*5C
1515863224.66,4111,6.38,73436.8,-15.39,-22.03,-21.47,0,*58
1515863225.95,4112,6.38,73438.5,-15.39,-21.87,-21.27,0,*52
1515863227.19,4113,6.38,73438.3,-15.41,-21.83,-21.17,0,*5B
1515863228.42,4114,6.38,73436.0,-15.37,-21.57,-21.09,0,*5B
1515863229.66,4115,6.38,73438.8,-15.39,-21.77,-21.13,0,*5D
1515863230.88,4116,6.44,73440.3,-15.39,-22.07,-21.43,0,*5F
1515863232.1,4117,6.38,73436.0,-15.41,-22.11,-21.47,0,*52
1515863233.34,4118,6.38,73434.0,-15.41,-21.53,-21.13,0,*59
1515863234.58,4119,6.38,73428.5,-15.41,-21.03,-20.59,0,*52
1515863235.83,4120,6.38,73430.8,-15.41,-21.17,-20.49,0,*5C
1515863237.07,4121,6.38,73432.8,-15.41,-21.77,-20.83,0,*5D
1515863238.35,4122,6.38,73436.0,-15.39,-21.57,-20.83,0,*53
1515863239.56,4123,6.38,73432.0,-15.41,-21.39,-20.69,0,*51
1515863240.79,4124,6.38,73432.8,-15.41,-21.63,-20.89,0,*57
1515863242.04,4125,6.38,73434.3,-15.39,-21.63,-20.99,0,*58
1515863243.28,4126,6.38,73434.3,-15.41,-21.83,-21.17,0,*5D
1515863244.53,4127,6.38,73434.0,-15.41,-21.77,-20.99,0,*50
1515863245.77,4128,6.38,73434.8,-15.41,-21.83,-21.17,0,*53
1515863247.01,4129,6.38,73434.0,-15.41,-21.83,-21.17,0,*52
1515863248.25,4130,6.38,73434.3,-15.41,-21.47,-20.83,0,*5E
1515863249.52,4131,6.44,73438.0,-15.43,-21.23,-20.59,0,*58
1515863250.78,4132,6.38,73432.5,-15.43,-21.53,-20.69,0,*5F
1515863252.01,4133,6.38,73434.3,-15.45,-21.63,-20.83,0,*5F
1515863253.29,4134,6.44,73438.5,-15.43,-21.53,-20.89,0,*57
1515863254.5,4135,6.38,73438.3,-15.45,-21.39,-20.73,0,*59
1515863255.74,4136,6.38,73434.0,-15.45,-21.23,-20.59,0,*59
1515863256.99,4137,6.38,73432.8,-15.43,-21.13,-20.39,0,*5B
1515863258.2,4138,6.38,73434.8,-15.45,-21.09,-20.43,0,*54
1515863259.44,4139,6.38,73432.8,-15.43,-20.89,-20.29,0,*56
1515863260.67,4140,6.38,73434.5,-15.45,-21.09,-20.35,0,*5A
1515863261.87,4141,6.38,73434.3,-15.45,-21.09,-20.29,0,*56
1515863263.09,4142,6.38,73434.5,-15.45,-21.39,-20.63,0,*58
1515863264.32,4143,6.38,73434.3,-15.43,-21.39,-20.73,0,*5E
1515863265.53,4144,6.38,73434.8,-15.45,-21.39,-20.73,0,*5F
1515863266.75,4145,6.38,73434.8,-15.45,-21.43,-20.63,0,*52
1515863267.99,4146,6.38,73430.3,-15.45,-21.57,-20.63,0,*54
1515863269.23,4147,6.38,73434.3,-15.45,-21.83,-20.93,0,*53
1515863270.49,4148,6.38,73438.0,-15.45,-21.97,-21.23,0,*53
1515863271.73,4149,6.38,73436.0,-15.45,-22.03,-21.23,0,*5C
1515863273.0,4150,6.38,73436.3,-15.45,-21.97,-21.23,0,*5A
1515863274.27,4151,6.38,73436.5,-15.45,-21.97,-21.23,0,*5B
1515863275.53,4152,6.38,73434.3,-15.47,-22.03,-21.27,0,*50
1515863276.8,4153,6.38,73434.0,-15.47,-21.87,-21.17,0,*5D
1515863278.07,4154,6.38,73434.0,-15.47,-21.53,-20.89,0,*55
1515863279.32,4155,6.38,73438.3,-15.47,-21.73,-20.93,0,*5D
1515863280.56,4156,6.38,73434.0,-15.47,-21.43,-20.89,0,*56
1515863281.83,4157,6.38,73434.8,-15.47,-21.23,-20.59,0,*5C
1515863283.04,4158,6.38,73436.0,-15.45,-21.09,-20.43,0,*52
1515863284.31,4159,6.38,73436.0,-15.47,-21.23,-20.59,0,*52
1515863285.58,4160,6.38,73434.3,-15.47,-21.53,-20.63,0,*56
1515863286.85,4161,6.38,73438.3,-15.49,-21.87,-20.99,0,*55
1515863288.11,4162,6.38,73436.8,-15.47,-21.97,-21.09,0,*51
1515863289.4,4163,6.38,73436.0,-15.47,-21.97,-21.23,0,*58
1515863290.64,4164,6.38,73436.0,-15.49,-21.57,-21.13,0,*5E
1515863291.92,4165,6.38,73434.5,-15.47,-20.79,-20.15,0,*5B
1515863293.15,4166,6.38,73432.0,-15.49,-20.69,-20.15,0,*57
1515863294.39,4167,6.38,73434.3,-15.49,-20.79,-19.91,0,*51
1515863295.6,4168,6.38,73436.3,-15.49,-21.13,-20.29,0,*5A
1515863296.87,4169,6.38,73434.5,-15.49,-20.99,-20.19,0,*5B
1515863298.1,4170,6.38,73436.3,-15.47,-20.73,-19.99,0,*5B
1515863299.31,4171,6.38,73432.5,-15.49,-20.69,-19.99,0,*5F
1515863300.55,4172,6.38,73438.8,-15.47,-20.89,-19.99,0,*5C
1515863301.77,4173,6.38,73440.5,-15.49,-21.13,-20.29,0,*50
1515863303.04,4174,6.38,73436.8,-15.49,-21.57,-20.53,0,*5A
1515863304.33,4175,6.38,73440.3,-15.47,-21.53,-20.79,0,*59
1515863305.57,4176,6.38,73436.5,-15.49,-21.47,-20.83,0,*54